Regional Weather Roundup
Issued by NWS Bismarck, ND

Home | Current Version | Previous Version | Text Only | Print | Product List | Glossary On
Versions: 1 2 3 4 5 6 7 8 9 10 11 12 13 14 15 16 17 18 19 20 21 22 23 24 25 26 27 28 29 30 31 32 33 34 35 36 37 38 39 40 41 42 43 44 45 46 47 48 49 50
000
ASUS43 KBIS 280110
RWRBIS

NWR BROADCAST TEXT
NATIONAL WEATHER SERVICE BISMARCK ND
700 PM CST FRI FEB 27 2015

NOTE: "FAIR" INDICATES FEW OR NO CLOUDS BELOW 12,000 FEET WITH NO
SIGNIFICANT WEATHER AND/OR OBSTRUCTIONS TO VISIBILITY.


CITY           SKY/WX    TMP DP  RH WIND       PRES   REMARKS
WILLISTON      MOCLDY    23   5  46 SE5       30.05R WCI  17
MINOT          PTCLDY    10   0  63 SE6       30.15S WCI   0
MINOT AFB      PTCLDY     5  -1  77 SE9       30.15S WCI  -9
BISMARCK       CLEAR     13   4  67 S9        30.20S WCI   1
DICKINSON      CLOUDY    20   6  55 SE10      30.02R WCI   9
GARRISON         N/A     13   3  64 S7        30.15R WCI   3
HETTINGER ARPT CLOUDY    22   7  52 SE9       30.04S WCI  12
JAMESTOWN      CLEAR      7   0  73 S12       30.27S WCI  -8
BEACH          FAIR      16   7  67 SW5       30.01R WCI   9
CARRINGTON     FAIR       7   0  72 MISG      30.25S
CROSBY         FAIR       9   1  72 E3        30.09R
HARVEY         FAIR       7   0  72 S9        30.22S WCI  -7
HAZEN          FAIR      12   3  67 S9        30.16R WCI   0
LINTON         FAIR      10   3  72 SE14      30.21R WCI  -5
MANDAN         FAIR      10   5  79 SE7       30.18S WCI   0
OAKES            N/A      5   0  78 S9        30.33F WCI  -9
RUGBY          FAIR       7   0  72 S10       30.21R WCI  -8
TIOGA          FAIR       7   3  85 SE9       30.09S WCI  -7
WATFORD CITY   FAIR      19   7  58 SE10      30.03S WCI   8
$$

CITY           SKY/WX    TMP DP  RH WIND       PRES   REMARKS
GRAND FORKS    PTCLDY     6  -2  69 S9        30.35S WCI  -8
GRAND FORKS AF PTCLDY     7  -2  68 S10       30.34S WCI  -8
DEVILS LAKE    PTCLDY     9  -2  61 S7        30.25S WCI  -3
FARGO          CLEAR     12   0  58 S9        30.39S WCI   0
CANDO          FAIR       3   0  85 S8        30.24S WCI -10
CAVALIER       FAIR       9   1  72 S10       30.30F WCI  -6
GWINNER        CLEAR      9   0  66 S8        30.36S WCI  -4
ROLLA          FAIR       5   0  78 S6        30.19S WCI  -6
WALHALLA         N/A      9   0  66 S6        30.29S WCI  -1
$$

CITY           SKY/WX    TMP DP  RH WIND       PRES   REMARKS
ABERDEEN       CLEAR      3  -3  76 SE8       30.35S WCI -10
MOBRIDGE       CLEAR     15   3  59 SE16      30.18S WCI  -1
BUFFALO          N/A     20  10  65 S8        29.93R WCI  10
RAPID CITY     MOCLDY    20  11  68 S15       30.01S WCI   6
GLASGOW        PTCLDY    16   5  62 NW7       30.04R WCI   6
SIDNEY         CLOUDY    25   9  50 SE6       30.06S WCI  18
WOLF POINT     MOCLDY    20   7  57 NW7       30.04R WCI  11
GLENDIVE       PTCLDY    21   7  53 W6        30.01S WCI  14
MILES CITY     PTCLDY    21   9  59 NW5       30.00R WCI  15
BAKER          PTCLDY    16   7  67 S6        29.99S WCI   7
$$

CITY           SKY/WX    TMP DP  RH WIND       PRES   REMARKS
BILLINGS       PTCLDY    24   7  48 NE14      29.95R WCI  12
GREAT FALLS    CLOUDY    18  12  77 N9        30.04R WCI   7
REGINA         MOCLDY     0  -6  78 SE6       30.10S WCI -12
ESTEVAN        CLOUDY     9   1  72 SE8       30.09S WCI  -4
$$




USA.gov is the U.S. government's official web portal to all federal, state and local government web resources and services.